LEMUR-2-YONGLIN

Last updated on Wed Feb 14 2018 16:20:55 GMT+0000 (Coordinated Universal Time)

1 43045U 17071J 18044.87095434 .00004773 00000-0 13312-3 0 9993 2 43045 51.6389 281.6359 0004977 157.7832 202.3369 15.38669456 10643
UTC large
Height (km)
Speed (km/s)
/
Latitude / Longitude
Inclination (degrees)
Orbital Period (minutes)
Azimuth
Elevation
Range (km)
Doppler Factor

Next 0 passes for location: London (51.5072 / 0.1276)

Sorry there are no passes over London.